Location: Coors Field
(39.7564°N, 104.9943°W)
Time: 07:20:37
(UTC-06:00)

ISS - Visible Passes

Search period start: 20 April 2014 00:00
Search period end: 30 April 2014 00:00
Orbit: 414 x 419 km, 51.6° (Epoch: 20 April)

Date Brightness Start Highest point End Pass type
(mag) Time Alt. Az. Time Alt. Az. Time Alt. Az.
20 Apr -2.2 21:01:39 10° NW 21:04:48 36° NNE 21:06:02 26° ENE visible
20 Apr -0.1 22:38:36 10° WNW 22:38:56 12° W 22:38:56 12° W visible
21 Apr -1.6 20:13:20 10° NNW 20:16:10 25° NNE 20:18:59 10° E visible
21 Apr -2.2 21:49:49 10° WNW 21:52:25 40° WSW 21:52:25 40° WSW visible
22 Apr -3.3 21:01:10 10° NW 21:04:31 85° SW 21:05:54 33° SE visible
23 Apr -2.9 20:12:36 10° NW 20:15:53 54° NE 20:19:10 10° ESE visible
23 Apr -0.9 21:50:13 10° W 21:52:17 16° SW 21:52:17 16° SW visible
24 Apr -1.7 21:00:54 10° WNW 21:03:48 28° SW 21:05:48 16° S visible
25 Apr -2.6 20:11:55 10° WNW 20:15:10 51° SW 20:18:24 10° SE visible
